Time,TemperatureF,DewpointF,PressureIn,WindDirection,WindDirectionDegrees,WindSpeedMPH,WindSpeedGustMPH,Humidity,HourlyPrecipIn,Conditions,Clouds,dailyrainin,SoftwareType,DateUTC
2013-10-18 00:00:00,62.6,20.9,29.76,NNW,332,5.0,5.0,20,0.00,,,0.00,Wunderground v.1.15,2013-10-18 07:00:00,
2013-10-18 00:05:00,62.9,21.2,29.76,NNW,330,5.0,5.0,20,0.00,,,0.00,Wunderground v.1.15,2013-10-18 07:05:00,
2013-10-18 00:15:00,62.1,20.5,29.76,NNW,329,5.0,6.0,20,0.00,,,0.00,Wunderground v.1.15,2013-10-18 07:15:00,
2013-10-18 00:20:00,61.7,21.3,29.76,NNW,329,6.0,6.0,21,0.00,,,0.00,Wunderground v.1.15,2013-10-18 07:20:00,
2013-10-18 00:25:00,61.1,20.8,29.76,NW,323,7.0,9.0,21,0.00,,,0.00,Wunderground v.1.15,2013-10-18 07:25:00,
2013-10-18 00:35:00,61.4,23.2,29.76,NW,326,8.0,8.0,23,0.00,,,0.00,Wunderground v.1.15,2013-10-18 07:35:00,
2013-10-18 00:40:00,61.5,24.3,29.76,NW,323,8.0,8.0,24,0.00,,,0.00,Wunderground v.1.15,2013-10-18 07:40:00,
2013-10-18 00:50:00,61.2,24.1,29.76,NNW,329,7.0,7.0,24,0.00,,,0.00,Wunderground v.1.15,2013-10-18 07:50:00,
2013-10-18 00:55:00,61.1,24.0,29.76,NNW,328,7.0,7.0,24,0.00,,,0.00,Wunderground v.1.15,2013-10-18 07:55:00,
2013-10-18 01:00:00,61.1,24.0,29.76,NNW,342,6.0,6.0,24,0.00,,,0.00,Wunderground v.1.15,2013-10-18 08:00:00,
2013-10-18 01:05:00,61.1,24.0,29.76,North,4,5.0,7.0,24,0.00,,,0.00,Wunderground v.1.15,2013-10-18 08:05:00,
2013-10-18 01:10:00,61.3,24.2,29.76,NNW,333,6.0,6.0,24,0.00,,,0.00,Wunderground v.1.15,2013-10-18 08:10:00,
2013-10-18 01:15:00,61.3,24.2,29.76,NNW,334,7.0,7.0,24,0.00,,,0.00,Wunderground v.1.15,2013-10-18 08:15:00,
2013-10-18 01:20:00,61.0,23.9,29.76,NNW,335,7.0,8.0,24,0.00,,,0.00,Wunderground v.1.15,2013-10-18 08:20:00,
2013-10-18 01:25:00,61.0,23.9,29.77,NW,318,7.0,8.0,24,0.00,,,0.00,Wunderground v.1.15,2013-10-18 08:25:00,
2013-10-18 01:30:00,60.8,23.7,29.77,NNW,333,7.0,8.0,24,0.00,,,0.00,Wunderground v.1.15,2013-10-18 08:30:00,
2013-10-18 01:40:00,60.9,23.8,29.77,NNW,334,7.0,7.0,24,0.00,,,0.00,Wunderground v.1.15,2013-10-18 08:40:00,
2013-10-18 01:45:00,61.3,24.2,29.77,NNW,332,6.0,7.0,24,0.00,,,0.00,Wunderground v.1.15,2013-10-18 08:45:00,
2013-10-18 01:50:00,61.2,24.1,29.77,NNW,330,6.0,6.0,24,0.00,,,0.00,Wunderground v.1.15,2013-10-18 08:50:00,
2013-10-18 01:55:00,61.1,24.0,29.77,NNW,338,6.0,8.0,24,0.00,,,0.00,Wunderground v.1.15,2013-10-18 08:55:00,
2013-10-18 02:00:00,61.0,23.9,29.77,NW,323,7.0,7.0,24,0.00,,,0.00,Wunderground v.1.15,2013-10-18 09:00:00,
2013-10-18 02:05:00,61.1,24.0,29.77,NW,326,7.0,7.0,24,0.00,,,0.00,Wunderground v.1.15,2013-10-18 09:05:00,
2013-10-18 02:10:00,60.9,23.8,29.76,NNW,329,7.0,8.0,24,0.00,,,0.00,Wunderground v.1.15,2013-10-18 09:10:00,
2013-10-18 02:15:00,60.5,23.5,29.76,NW,326,8.0,8.0,24,0.00,,,0.00,Wunderground v.1.15,2013-10-18 09:15:00,
2013-10-18 02:25:00,60.7,23.7,29.76,NNW,328,8.0,8.0,24,0.00,,,0.00,Wunderground v.1.15,2013-10-18 09:25:00,
2013-10-18 02:30:00,61.0,23.9,29.76,NNW,332,7.0,7.0,24,0.00,,,0.00,Wunderground v.1.15,2013-10-18 09:30:00,
2013-10-18 02:35:00,61.2,24.1,29.76,NNW,329,7.0,8.0,24,0.00,,,0.00,Wunderground v.1.15,2013-10-18 09:35:00,
2013-10-18 02:40:00,61.4,23.2,29.76,NW,321,8.0,8.0,23,0.00,,,0.00,Wunderground v.1.15,2013-10-18 09:40:00,
2013-10-18 02:45:00,61.4,23.2,29.76,NW,325,8.0,8.0,23,0.00,,,0.00,Wunderground v.1.15,2013-10-18 09:45:00,
2013-10-18 02:55:00,60.9,22.8,29.76,NW,326,8.0,9.0,23,0.00,,,0.00,Wunderground v.1.15,2013-10-18 09:55:00,
2013-10-18 03:05:00,60.9,22.8,29.76,NW,326,7.0,9.0,23,0.00,,,0.00,Wunderground v.1.15,2013-10-18 10:05:00,
2013-10-18 03:10:00,60.6,22.6,29.76,NNW,334,8.0,8.0,23,0.00,,,0.00,Wunderground v.1.15,2013-10-18 10:10:00,
2013-10-18 03:15:00,60.4,23.4,29.76,NNE,22,8.0,9.0,24,0.00,,,0.00,Wunderground v.1.15,2013-10-18 10:15:00,
2013-10-18 03:20:00,60.6,23.6,29.76,NNW,330,7.0,7.0,24,0.00,,,0.00,Wunderground v.1.15,2013-10-18 10:20:00,
2013-10-18 03:30:00,60.5,23.5,29.76,NNW,335,8.0,10.0,24,0.00,,,0.00,Wunderground v.1.15,2013-10-18 10:30:00,
2013-10-18 03:35:00,60.3,23.3,29.76,NNW,334,8.0,10.0,24,0.00,,,0.00,Wunderground v.1.15,2013-10-18 10:35:00,
2013-10-18 03:40:00,60.2,23.2,29.76,NNW,328,8.0,9.0,24,0.00,,,0.00,Wunderground v.1.15,2013-10-18 10:40:00,
2013-10-18 03:45:00,60.4,23.4,29.76,NW,323,8.0,9.0,24,0.00,,,0.00,Wunderground v.1.15,2013-10-18 10:45:00,
2013-10-18 03:50:00,60.6,23.6,29.76,NNW,339,8.0,9.0,24,0.00,,,0.00,Wunderground v.1.15,2013-10-18 10:50:00,
2013-10-18 03:55:00,60.7,23.7,29.76,NNW,332,8.0,9.0,24,0.00,,,0.00,Wunderground v.1.15,2013-10-18 10:55:00,
2013-10-18 04:00:00,60.8,23.7,29.76,NW,326,8.0,8.0,24,0.00,,,0.00,Wunderground v.1.15,2013-10-18 11:00:00,
2013-10-18 04:05:00,61.0,23.9,29.76,NW,323,8.0,8.0,24,0.00,,,0.00,Wunderground v.1.15,2013-10-18 11:05:00,
2013-10-18 04:15:00,60.9,23.8,29.77,NNW,335,8.0,8.0,24,0.00,,,0.00,Wunderground v.1.15,2013-10-18 11:15:00,
2013-10-18 04:25:00,60.5,24.5,29.77,NNW,334,7.0,8.0,25,0.00,,,0.00,Wunderground v.1.15,2013-10-18 11:25:00,
2013-10-18 04:30:00,60.1,24.1,29.77,NW,320,8.0,8.0,25,0.00,,,0.00,Wunderground v.1.15,2013-10-18 11:30:00,
2013-10-18 04:35:00,60.3,24.3,29.77,NW,323,7.0,8.0,25,0.00,,,0.00,Wunderground v.1.15,2013-10-18 11:35:00,
2013-10-18 04:45:00,60.5,24.5,29.77,NNW,334,7.0,9.0,25,0.00,,,0.00,Wunderground v.1.15,2013-10-18 11:45:00,
2013-10-18 04:50:00,60.6,24.5,29.77,NNW,327,7.0,8.0,25,0.00,,,0.00,Wunderground v.1.15,2013-10-18 11:50:00,
2013-10-18 05:00:00,61.0,24.9,29.77,NW,323,8.0,8.0,25,0.00,,,0.00,Wunderground v.1.15,2013-10-18 12:00:00,
2013-10-18 05:05:00,61.1,25.0,29.77,NW,316,7.0,8.0,25,0.00,,,0.00,Wunderground v.1.15,2013-10-18 12:05:00,
2013-10-18 05:10:00,60.9,24.8,29.77,NW,319,7.0,7.0,25,0.00,,,0.00,Wunderground v.1.15,2013-10-18 12:10:00,
2013-10-18 05:20:00,60.1,25.1,29.78,NNW,333,4.0,4.0,26,0.00,,,0.00,Wunderground v.1.15,2013-10-18 12:20:00,
2013-10-18 05:30:00,59.9,24.9,29.78,NNW,333,1.0,2.0,26,0.00,,,0.00,Wunderground v.1.15,2013-10-18 12:30:00,
2013-10-18 05:35:00,60.3,25.2,29.78,NNW,335,3.0,3.0,26,0.00,,,0.00,Wunderground v.1.15,2013-10-18 12:35:00,
2013-10-18 05:40:00,60.2,25.1,29.78,North,1,3.0,3.0,26,0.00,,,0.00,Wunderground v.1.15,2013-10-18 12:40:00,
2013-10-18 05:45:00,60.1,25.1,29.78,NE,36,2.0,3.0,26,0.00,,,0.00,Wunderground v.1.15,2013-10-18 12:45:00,
2013-10-18 05:50:00,59.7,24.7,29.78,NNW,340,2.0,2.0,26,0.00,,,0.00,Wunderground v.1.15,2013-10-18 12:50:00,
2013-10-18 05:55:00,59.3,24.4,29.78,NNW,328,2.0,2.0,26,0.00,,,0.00,Wunderground v.1.15,2013-10-18 12:55:00,
2013-10-18 06:05:00,58.9,24.9,29.79,NNW,346,2.0,3.0,27,0.00,,,0.00,Wunderground v.1.15,2013-10-18 13:05:00,
2013-10-18 06:10:00,59.0,25.0,29.79,NW,311,2.0,2.0,27,0.00,,,0.00,Wunderground v.1.15,2013-10-18 13:10:00,
2013-10-18 18:00:00,73.0,20.9,29.75,NNW,328,10.0,14.0,14,0.00,,,0.00,Wunderground v.1.15,2013-10-19 01:00:00,
2013-10-18 18:10:00,72.7,20.7,29.76,NW,323,10.0,10.0,14,0.00,,,0.00,Wunderground v.1.15,2013-10-19 01:10:00,
2013-10-18 18:15:00,72.5,20.5,29.76,NW,318,9.0,10.0,14,0.00,,,0.00,Wunderground v.1.15,2013-10-19 01:15:00,
2013-10-18 18:20:00,72.3,20.4,29.76,NNW,338,10.0,14.0,14,0.00,,,0.00,Wunderground v.1.15,2013-10-19 01:20:00,
2013-10-18 18:25:00,72.1,20.2,29.76,NW,314,10.0,14.0,14,0.00,,,0.00,Wunderground v.1.15,2013-10-19 01:25:00,
2013-10-18 18:30:00,71.9,21.7,29.76,NW,323,10.0,10.0,15,0.00,,,0.00,Wunderground v.1.15,2013-10-19 01:30:00,
2013-10-18 18:35:00,71.7,21.5,29.77,NNW,332,11.0,13.0,15,0.00,,,0.00,Wunderground v.1.15,2013-10-19 01:35:00,
2013-10-18 18:40:00,71.6,21.5,29.77,NW,326,12.0,12.0,15,0.00,,,0.00,Wunderground v.1.15,2013-10-19 01:40:00,
2013-10-18 18:45:00,71.5,21.4,29.77,NW,319,13.0,13.0,15,0.00,,,0.00,Wunderground v.1.15,2013-10-19 01:45:00,
2013-10-18 18:55:00,70.7,20.7,29.78,SE,124,7.0,10.0,15,0.00,,,0.00,Wunderground v.1.15,2013-10-19 01:55:00,
2013-10-18 19:00:00,70.1,21.8,29.79,ENE,69,4.0,4.0,16,0.00,,,0.00,Wunderground v.1.15,2013-10-19 02:00:00,
2013-10-18 19:05:00,69.5,21.3,29.79,NNW,339,1.0,4.0,16,0.00,,,0.00,Wunderground v.1.15,2013-10-19 02:05:00,
2013-10-18 19:10:00,69.5,21.3,29.79,NNW,327,1.0,3.0,16,0.00,,,0.00,Wunderground v.1.15,2013-10-19 02:10:00,
2013-10-18 19:15:00,69.9,21.6,29.79,NW,304,2.0,4.0,16,0.00,,,0.00,Wunderground v.1.15,2013-10-19 02:15:00,
2013-10-18 19:20:00,70.5,22.1,29.79,WNW,286,4.0,6.0,16,0.00,,,0.00,Wunderground v.1.15,2013-10-19 02:20:00,
2013-10-18 19:30:00,70.2,21.9,29.80,WNW,297,4.0,4.0,16,0.00,,,0.00,Wunderground v.1.15,2013-10-19 02:30:00,
2013-10-18 19:35:00,69.7,21.5,29.80,NW,321,4.0,4.0,16,0.00,,,0.00,Wunderground v.1.15,2013-10-19 02:35:00,
2013-10-18 19:40:00,69.6,21.4,29.80,NW,319,4.0,5.0,16,0.00,,,0.00,Wunderground v.1.15,2013-10-19 02:40:00,
2013-10-18 19:45:00,69.3,22.6,29.80,NNW,335,5.0,5.0,17,0.00,,,0.00,Wunderground v.1.15,2013-10-19 02:45:00,
2013-10-18 19:55:00,68.8,22.2,29.80,NNW,337,4.0,6.0,17,0.00,,,0.00,Wunderground v.1.15,2013-10-19 02:55:00,
2013-10-18 20:00:00,68.2,21.7,29.80,NNW,340,4.0,6.0,17,0.00,,,0.00,Wunderground v.1.15,2013-10-19 03:00:00,
2013-10-18 20:10:00,67.9,21.4,29.80,NNW,335,6.0,6.0,17,0.00,,,0.00,Wunderground v.1.15,2013-10-19 03:10:00,
2013-10-18 20:15:00,67.9,21.4,29.80,NE,46,6.0,6.0,17,0.00,,,0.00,Wunderground v.1.15,2013-10-19 03:15:00,
2013-10-18 20:20:00,67.2,20.9,29.80,NNW,332,5.0,6.0,17,0.00,,,0.00,Wunderground v.1.15,2013-10-19 03:20:00,
2013-10-18 20:25:00,67.3,22.3,29.80,NNW,343,6.0,6.0,18,0.00,,,0.00,Wunderground v.1.15,2013-10-19 03:25:00,
2013-10-18 20:35:00,68.4,21.8,29.80,NNE,12,6.0,7.0,17,0.00,,,0.00,Wunderground v.1.15,2013-10-19 03:35:00,
2013-10-18 20:45:00,68.8,22.2,29.80,NNW,336,4.0,6.0,17,0.00,,,0.00,Wunderground v.1.15,2013-10-19 03:45:00,
2013-10-18 20:50:00,68.8,22.2,29.81,NW,326,4.0,6.0,17,0.00,,,0.00,Wunderground v.1.15,2013-10-19 03:50:00,
2013-10-18 20:55:00,68.8,22.2,29.81,NNW,346,5.0,6.0,17,0.00,,,0.00,Wunderground v.1.15,2013-10-19 03:55:00,
2013-10-18 21:05:00,68.8,22.2,29.81,North,349,8.0,8.0,17,0.00,,,0.00,Wunderground v.1.15,2013-10-19 04:05:00,
2013-10-18 21:10:00,69.0,22.3,29.81,NW,326,8.0,8.0,17,0.00,,,0.00,Wunderground v.1.15,2013-10-19 04:10:00,
2013-10-18 21:15:00,69.1,22.4,29.81,North,349,9.0,11.0,17,0.00,,,0.00,Wunderground v.1.15,2013-10-19 04:15:00,
2013-10-18 21:20:00,69.2,22.5,29.81,NNW,348,9.0,9.0,17,0.00,,,0.00,Wunderground v.1.15,2013-10-19 04:20:00,
2013-10-18 21:25:00,69.2,23.9,29.81,NNW,341,10.0,10.0,18,0.00,,,0.00,Wunderground v.1.15,2013-10-19 04:25:00,
2013-10-18 21:30:00,68.9,23.6,29.80,North,349,11.0,11.0,18,0.00,,,0.00,Wunderground v.1.15,2013-10-19 04:30:00,
2013-10-18 21:35:00,68.7,23.4,29.81,North,357,12.0,14.0,18,0.00,,,0.00,Wunderground v.1.15,2013-10-19 04:35:00,
2013-10-18 21:40:00,68.7,23.4,29.81,NNW,332,13.0,13.0,18,0.00,,,0.00,Wunderground v.1.15,2013-10-19 04:40:00,
2013-10-18 21:45:00,68.8,23.5,29.80,NNW,332,12.0,13.0,18,0.00,,,0.00,Wunderground v.1.15,2013-10-19 04:45:00,
2013-10-18 21:50:00,69.0,23.7,29.81,NNW,340,11.0,11.0,18,0.00,,,0.00,Wunderground v.1.15,2013-10-19 04:50:00,
2013-10-18 22:00:00,69.5,22.7,29.81,NNW,343,8.0,8.0,17,0.00,,,0.00,Wunderground v.1.15,2013-10-19 05:00:00,
2013-10-18 22:05:00,69.5,22.7,29.81,NNW,341,8.0,8.0,17,0.00,,,0.00,Wunderground v.1.15,2013-10-19 05:05:00,
2013-10-18 22:10:00,69.5,22.7,29.81,NNW,335,7.0,8.0,17,0.00,,,0.00,Wunderground v.1.15,2013-10-19 05:10:00,
2013-10-18 22:20:00,69.4,22.7,29.81,NNW,333,7.0,9.0,17,0.00,,,0.00,Wunderground v.1.15,2013-10-19 05:20:00,
2013-10-18 22:25:00,69.4,24.0,29.81,North,349,8.0,9.0,18,0.00,,,0.00,Wunderground v.1.15,2013-10-19 05:25:00,
2013-10-18 22:30:00,69.4,24.0,29.81,NNW,345,9.0,10.0,18,0.00,,,0.00,Wunderground v.1.15,2013-10-19 05:30:00,
2013-10-18 22:35:00,69.4,24.0,29.81,NNW,340,9.0,10.0,18,0.00,,,0.00,Wunderground v.1.15,2013-10-19 05:35:00,
2013-10-18 22:45:00,69.2,22.5,29.81,NNW,347,7.0,8.0,17,0.00,,,0.00,Wunderground v.1.15,2013-10-19 05:45:00,
2013-10-18 22:55:00,69.3,22.6,29.81,NNW,332,6.0,7.0,17,0.00,,,0.00,Wunderground v.1.15,2013-10-19 05:55:00,
2013-10-18 23:00:00,69.2,22.5,29.81,NW,309,5.0,5.0,17,0.00,,,0.00,Wunderground v.1.15,2013-10-19 06:00:00,
2013-10-18 23:10:00,68.6,23.4,29.80,NNW,332,5.0,5.0,18,0.00,,,0.00,Wunderground v.1.15,2013-10-19 06:10:00,
2013-10-18 23:15:00,68.7,23.4,29.80,NNE,23,8.0,10.0,18,0.00,,,0.00,Wunderground v.1.15,2013-10-19 06:15:00,
2013-10-18 23:25:00,68.8,22.2,29.80,NE,37,8.0,9.0,17,0.00,,,0.00,Wunderground v.1.15,2013-10-19 06:25:00,
2013-10-18 23:30:00,69.1,22.4,29.80,NNW,333,8.0,12.0,17,0.00,,,0.00,Wunderground v.1.15,2013-10-19 06:30:00,
2013-10-18 23:35:00,69.2,22.5,29.80,NE,45,9.0,12.0,17,0.00,,,0.00,Wunderground v.1.15,2013-10-19 06:35:00,
2013-10-18 23:45:00,68.8,22.2,29.80,North,359,10.0,10.0,17,0.00,,,0.00,Wunderground v.1.15,2013-10-19 06:45:00,
2013-10-18 23:55:00,69.1,22.4,29.80,NW,323,9.0,9.0,17,0.00,,,0.00,Wunderground v.1.15,2013-10-19 06:55:00,